Hourly Weather Armagh

Today, 11 August, Tuesday

Time Temperature Precipitation Wind Pressure Humidity
00:00 +15°C° 0 mm 1 mps 758 mmHg 96%
01:00 +15°C° 0 mm 1 mps 758 mmHg 96%
02:00 +15°C° 0 mm 1 mps 758 mmHg 96%
03:00 +15°C° 0 mm 2 mps 758 mmHg 96%
04:00 +15°C° 0 mm 1 mps 757 mmHg 96%
05:00 +15°C° 0 mm 1 mps 757 mmHg 96%
06:00 +15°C° 0 mm 1 mps 757 mmHg 97%
07:00 +16°C° 0 mm 1 mps 758 mmHg 95%
08:00 +18°C° 0 mm 1 mps 758 mmHg 92%
09:00 +19°C° 0 mm 1 mps 758 mmHg 90%
10:00 +20°C° 0 mm 1 mps 758 mmHg 88%
11:00 +21°C° 0 mm 1 mps 758 mmHg 86%
12:00 +22°C° 0 mm 1 mps 758 mmHg 83%
13:00 +22°C° 0 mm 1 mps 757 mmHg 83%
14:00 +22°C° 0 mm 1 mps 757 mmHg 83%
15:00 +23°C° 0 mm 1 mps 757 mmHg 83%
16:00 +22°C° 0 mm 1 mps 757 mmHg 85%
17:00 +22°C° 0 mm 1 mps 757 mmHg 87%
18:00 +22°C° 0 mm 1 mps 757 mmHg 89%
19:00 +21°C° 0 mm 1 mps 757 mmHg 91%
20:00 +20°C° 0 mm 1 mps 757 mmHg 93%
21:00 +17°C° 0 mm 0 mps 757 mmHg 95%
22:00 +18°C° 0 mm 1 mps 757 mmHg 96%
23:00 +18°C° 0 mm 1 mps 757 mmHg 96%

Tomorrow, 12 August, Wednesday

Time Temperature Precipitation Wind Pressure Humidity
00:00 +16°C° 0 mm 1 mps 757 mmHg 96%
01:00 +16°C° 0 mm 1 mps 757 mmHg 96%
02:00 +16°C° 0 mm 1 mps 756 mmHg 96%
03:00 +15°C° 0 mm 1 mps 756 mmHg 96%
04:00 +15°C° 0 mm 1 mps 756 mmHg 96%
05:00 +15°C° 0 mm 1 mps 756 mmHg 95%
06:00 +15°C° 0 mm 1 mps 756 mmHg 95%
07:00 +17°C° 0 mm 2 mps 756 mmHg 92%
08:00 +18°C° 0 mm 2 mps 756 mmHg 88%
09:00 +19°C° 0 mm 2 mps 756 mmHg 85%
10:00 +20°C° 0 mm 2 mps 757 mmHg 82%
11:00 +21°C° 0 mm 2 mps 757 mmHg 79%
12:00 +22°C° 0 mm 3 mps 757 mmHg 77%
13:00 +22°C° 0 mm 3 mps 757 mmHg 77%
14:00 +23°C° 0 mm 2 mps 757 mmHg 78%
15:00 +23°C° 0 mm 2 mps 756 mmHg 78%
16:00 +22°C° 0 mm 3 mps 756 mmHg 81%
17:00 +21°C° 0 mm 3 mps 756 mmHg 83%
18:00 +21°C° 0 mm 3 mps 756 mmHg 85%
19:00 +19°C° 0 mm 3 mps 756 mmHg 89%
20:00 +18°C° 0 mm 3 mps 756 mmHg 93%
21:00 +16°C° 0 mm 3 mps 756 mmHg 96%
22:00 +16°C° 0 mm 3 mps 756 mmHg 96%
23:00 +14°C° 0 mm 3 mps 756 mmHg 96%

Day after tomorrow, 13 August, Thursday

Time Temperature Precipitation Wind Pressure Humidity
00:00 +14°C° 0 mm 3 mps 756 mmHg 96%
01:00 +14°C° 0 mm 3 mps 756 mmHg 96%
02:00 +14°C° 0 mm 3 mps 756 mmHg 96%
03:00 +15°C° 0 mm 2 mps 755 mmHg 96%
04:00 +16°C° 0.1 mm 3 mps 755 mmHg 96%
05:00 +16°C° 0.1 mm 3 mps 756 mmHg 96%
06:00 +16°C° 0.1 mm 3 mps 756 mmHg 96%
07:00 +17°C° 0.2 mm 3 mps 756 mmHg 96%
08:00 +17°C° 0.2 mm 3 mps 756 mmHg 96%
09:00 +18°C° 0.2 mm 3 mps 756 mmHg 96%
10:00 +19°C° 0.1 mm 3 mps 756 mmHg 94%
11:00 +19°C° 0.1 mm 3 mps 755 mmHg 93%
12:00 +20°C° 0.1 mm 3 mps 755 mmHg 91%
13:00 +21°C° 0 mm 3 mps 755 mmHg 89%
14:00 +21°C° 0 mm 4 mps 755 mmHg 87%
15:00 +22°C° 0 mm 4 mps 755 mmHg 85%
16:00 +22°C° 0 mm 4 mps 755 mmHg 86%
17:00 +21°C° 0 mm 3 mps 755 mmHg 87%
18:00 +21°C° 0 mm 3 mps 755 mmHg 88%
19:00 +20°C° 0 mm 3 mps 755 mmHg 89%
20:00 +20°C° 0 mm 3 mps 755 mmHg 91%
21:00 +19°C° 0 mm 3 mps 755 mmHg 92%
22:00 +18°C° 0 mm 3 mps 755 mmHg 93%
23:00 +18°C° 0 mm 3 mps 755 mmHg 94%

14 August, Friday

Time Temperature Precipitation Wind Pressure Humidity
00:00 +18°C° 0 mm 3 mps 755 mmHg 94%
01:00 +17°C° 0 mm 3 mps 755 mmHg 94%
02:00 +17°C° 0 mm 3 mps 755 mmHg 94%
03:00 +17°C° 0 mm 3 mps 755 mmHg 93%
04:00 +17°C° 0 mm 3 mps 755 mmHg 94%
05:00 +17°C° 0 mm 3 mps 755 mmHg 95%
06:00 +16°C° 0 mm 3 mps 755 mmHg 95%
07:00 +17°C° 0 mm 3 mps 756 mmHg 92%
08:00 +18°C° 0 mm 4 mps 756 mmHg 88%
09:00 +19°C° 0 mm 4 mps 756 mmHg 85%
10:00 +20°C° 0 mm 4 mps 756 mmHg 82%
11:00 +21°C° 0 mm 4 mps 756 mmHg 80%
12:00 +21°C° 0 mm 4 mps 756 mmHg 77%
13:00 +22°C° 0 mm 4 mps 756 mmHg 77%
14:00 +22°C° 0 mm 4 mps 756 mmHg 77%
15:00 +22°C° 0 mm 3 mps 756 mmHg 77%
16:00 +21°C° 0 mm 3 mps 756 mmHg 79%
17:00 +21°C° 0 mm 3 mps 756 mmHg 81%
18:00 +20°C° 0 mm 2 mps 756 mmHg 84%
19:00 +19°C° 0 mm 2 mps 756 mmHg 87%
20:00 +18°C° 0 mm 2 mps 757 mmHg 91%
21:00 +18°C° 0 mm 1 mps 757 mmHg 94%
22:00 +16°C° 0 mm 1 mps 757 mmHg 95%
23:00 +16°C° 0 mm 1 mps 757 mmHg 95%

15 August, Saturday

Time Temperature Precipitation Wind Pressure Humidity
00:00 +16°C° 0 mm 1 mps 757 mmHg 96%
01:00 +16°C° 0 mm 1 mps 757 mmHg 95%
02:00 +16°C° 0 mm 1 mps 757 mmHg 94%
03:00 +18°C° 0 mm 1 mps 757 mmHg 93%
04:00 +18°C° 0 mm 1 mps 757 mmHg 94%
05:00 +18°C° 0 mm 1 mps 757 mmHg 94%
06:00 +18°C° 0 mm 1 mps 757 mmHg 95%
07:00 +17°C° 0 mm 2 mps 757 mmHg 93%
08:00 +18°C° 0 mm 2 mps 757 mmHg 92%
09:00 +18°C° 0 mm 2 mps 757 mmHg 90%
10:00 +19°C° 0.1 mm 2 mps 757 mmHg 88%
11:00 +20°C° 0.1 mm 2 mps 757 mmHg 86%
12:00 +20°C° 0.1 mm 2 mps 757 mmHg 84%
13:00 +20°C° 0.4 mm 2 mps 757 mmHg 85%
14:00 +20°C° 0.4 mm 2 mps 757 mmHg 86%
15:00 +20°C° 0.4 mm 3 mps 757 mmHg 87%
16:00 +19°C° 0.3 mm 2 mps 757 mmHg 89%
17:00 +18°C° 0.3 mm 2 mps 757 mmHg 91%
18:00 +18°C° 0.3 mm 1 mps 757 mmHg 94%
19:00 +18°C° 0.4 mm 1 mps 757 mmHg 94%
20:00 +18°C° 0.4 mm 1 mps 757 mmHg 95%
21:00 +15°C° 0.4 mm 0 mps 757 mmHg 96%
22:00 +16°C° 0.5 mm 1 mps 756 mmHg 96%
23:00 +16°C° 0.5 mm 1 mps 756 mmHg 97%

16 August, Sunday

Time Temperature Precipitation Wind Pressure Humidity
00:00 +16°C° 0.5 mm 1 mps 756 mmHg 97%
01:00 +16°C° 0.4 mm 1 mps 756 mmHg 97%
02:00 +16°C° 0.4 mm 2 mps 756 mmHg 97%
03:00 +16°C° 0.4 mm 2 mps 755 mmHg 98%
04:00 +16°C° 0.4 mm 2 mps 755 mmHg 98%
05:00 +16°C° 0.4 mm 2 mps 755 mmHg 97%
06:00 +15°C° 0.4 mm 2 mps 755 mmHg 97%
07:00 +16°C° 0 mm 2 mps 755 mmHg 96%
08:00 +16°C° 0 mm 2 mps 755 mmHg 95%
09:00 +16°C° 0 mm 2 mps 755 mmHg 94%
10:00 +16°C° 0 mm 2 mps 755 mmHg 94%
11:00 +17°C° 0 mm 3 mps 754 mmHg 93%
12:00 +17°C° 0 mm 3 mps 754 mmHg 92%
13:00 +17°C° 0 mm 2 mps 754 mmHg 92%
14:00 +17°C° 0 mm 2 mps 754 mmHg 93%
15:00 +17°C° 0 mm 2 mps 753 mmHg 93%
16:00 +18°C° 0 mm 2 mps 753 mmHg 93%
17:00 +18°C° 0 mm 2 mps 753 mmHg 92%
18:00 +19°C° 0 mm 2 mps 753 mmHg 91%
19:00 +18°C° 0 mm 2 mps 753 mmHg 92%
20:00 +18°C° 0 mm 2 mps 753 mmHg 93%
21:00 +17°C° 0 mm 2 mps 753 mmHg 94%
22:00 +17°C° 0 mm 2 mps 752 mmHg 95%
23:00 +16°C° 0 mm 2 mps 752 mmHg 96%
Show more